Weather History for Mobile Downtown, AL

Change the Weather History Date:

Tuesday, March 25, 2014

  Actual Average Record
Temperature  
Mean Temperature 55 °F -  
Max Temperature 66 °F 68 °F 84 °F (2012)
Min Temperature 41 °F 50 °F 33 °F (2008)
Degree Days  
Heating Degree Days 10    
Growing Degree Days 5 (Base 50)    
Moisture  
Dew Point 29 °F    
Average Humidity 42    
Maximum Humidity 74    
Minimum Humidity 18    
Precipitation  
Precipitation 0.00 in - - ()
Sea Level Pressure  
Sea Level Pressure 30.13 in    
Wind  
Wind Speed 13 mph (NNW)    
Max Wind Speed 31 mph    
Max Gust Speed 37 mph    
Visibility 10 miles    
Events      
Averages and records for this station are not official NWS values.
T = Trace of Precipitation, MM = Missing Value Source: NWS Daily Summary

Daily Weather History Graph

Daily Weather History Graph

Search for Another Location

Airport:

Trip Planner

Search our weather history database for the weather conditions in past years. The results will help you decide how hot, cold, wet, or windy it might be!

Date:

Astronomy

Mar. 25, 2014 Rise Set
Actual Time 6:49 AM CDT 7:06 PM CDT
Civil Twilight 6:25 AM CDT 7:31 PM CDT
Nautical Twilight 5:57 AM CDT 7:59 PM CDT
Astronomical Twilight 5:29 AM CDT 8:27 PM CDT
Moon 2:51 AM CDT (3/25) 1:56 PM CDT (3/25)
Length of Visible Light 13h 05m
Length of Day
12h 17m
Waning Crescent, 32% of the Moon is Illuminated
Mar 25
Waning Crescent
Mar 30
New
Apr 7
First Quarter
Apr 15
Full
Apr 22
Last Quarter

Hourly Weather History & Observations

Time (CDT) Temp. Windchill Dew Point Humidity Pressure Visibility Wind Dir Wind Speed Gust Speed Precip Events Conditions
12:53 AM 55.0 °F - 46.9 °F 74% 30.04 in 10.0 mi WNW 3.5 mph - N/A   Overcast
1:53 AM 54.0 °F - 43.0 °F 66% 30.03 in 10.0 mi NW 8.1 mph - N/A   Clear
2:53 AM 51.1 °F - 43.0 °F 74% 30.02 in 10.0 mi NW 8.1 mph - N/A   Clear
3:19 AM 50.0 °F - 42.1 °F 74% 30.01 in 10.0 mi NW 9.2 mph - N/A   Clear
3:53 AM 51.1 °F - 39.9 °F 66% 30.02 in 10.0 mi NNW 11.5 mph - N/A   Clear
4:53 AM 50.0 °F - 36.0 °F 59% 30.04 in 10.0 mi NNW 15.0 mph - N/A   Clear
5:53 AM 48.0 °F - 34.0 °F 58% 30.06 in 10.0 mi NNW 12.7 mph - N/A   Clear
6:53 AM 44.1 °F 38.6 °F 33.1 °F 65% 30.09 in 10.0 mi NW 10.4 mph - N/A   Clear
7:53 AM 48.9 °F - 30.9 °F 50% 30.12 in 10.0 mi NNW 16.1 mph - N/A   Clear
8:53 AM 52.0 °F - 30.9 °F 45% 30.14 in 10.0 mi NNW 13.8 mph - N/A   Clear
9:53 AM 57.9 °F - 24.1 °F 27% 30.15 in 10.0 mi North 20.7 mph 28.8 mph N/A   Clear
10:53 AM 61.0 °F - 28.9 °F 30% 30.15 in 10.0 mi North 18.4 mph - N/A   Clear
11:53 AM 63.0 °F - 28.0 °F 27% 30.15 in 10.0 mi NNW 24.2 mph 28.8 mph N/A   Clear
12:53 PM 64.0 °F - 25.0 °F 23% 30.15 in 10.0 mi NNW 25.3 mph 32.2 mph N/A   Clear
1:53 PM 66.0 °F - 27.0 °F 23% 30.14 in 10.0 mi NNW 21.9 mph 29.9 mph N/A   Clear
2:53 PM 64.9 °F - 25.0 °F 22% 30.11 in 10.0 mi NNW 25.3 mph 32.2 mph N/A   Clear
3:53 PM 64.9 °F - 24.1 °F 21% 30.11 in 10.0 mi NW 21.9 mph 29.9 mph N/A   Clear
4:53 PM 63.0 °F - 19.0 °F 18% 30.10 in 10.0 mi NNW 31.1 mph 36.8 mph 0.00 in   Clear
5:53 PM 60.1 °F - 18.0 °F 20% 30.13 in 10.0 mi NW 24.2 mph 31.1 mph 0.00 in   Clear
6:53 PM 57.0 °F - 21.0 °F 25% 30.16 in 10.0 mi NNW 18.4 mph - N/A   Clear
7:53 PM 55.0 °F - 18.0 °F 23% 30.19 in 10.0 mi NNW 13.8 mph - N/A   Clear
8:53 PM 51.1 °F - 21.0 °F 31% 30.22 in 10.0 mi NNW 10.4 mph - N/A   Clear
9:53 PM 48.0 °F - 23.0 °F 37% 30.26 in 10.0 mi NW 11.5 mph - N/A   Clear
10:53 PM 48.0 °F - 23.0 °F 37% 30.28 in 10.0 mi NNW 11.5 mph - N/A   Clear
11:53 PM 41.0 °F 35.2 °F 26.1 °F 55% 30.29 in 10.0 mi NNW 9.2 mph - N/A   Clear